Theta_e
319 314 311 312 313 313 311 310 309 313 317 317 317 318 322 328 330 328 330 329 328 327 331 333 334 336 335 335 335 336 336 338 336 332 331 333 334 332 332 333 335 334 333 333
313 309 314 314 312 311 311 309 309 314 318 318 317 317 322 325 327 330 330 330 329 328 329 330 332 334 335 335 336 338 338 339 337 335 336 335 334 329 329 328 331 331 330 330
310 312 314 312 311 309 310 308 309 309 316 319 318 314 316 324 328 330 331 333 333 330 330 331 332 334 335 336 337 338 339 339 339 340 337 336 333 331 324 324 323 325 327 326
312 315 312 310 309 310 306 312 311 311 312 305 317 303 313 318 322 326 329 331 332 332 332 332 332 332 336 336 338 339 339 340 340 341 335 334 321 318 319 322 323 325 327 326
310 312 310 309 310 312 308 313 313 312 312 311 309 308 311 318 314 319 325 330 332 334 333 332 331 333 336 337 339 339 340 340 339 338 335 326 326 321 322 322 325 327 327 325
312 316 313 312 313 313 314 313 314 314 310 302 307 307 306 312 316 318 322 325 329 331 333 334 335 332 336 337 336 336 337 337 335 333 332 333 331 328 323 322 322 321 321 321
311 310 313 313 310 314 315 311 303 300 298 298 310 306 307 316 317 319 320 323 327 331 331 330 330 331 333 333 331 332 331 327 329 329 329 329 331 330 328 325 321 322 319 319
302 302 310 314 312 310 312 311 302 296 297 300 308 302 308 316 319 322 323 324 325 325 328 329 329 329 330 328 325 327 327 323 323 325 328 328 330 325 323 324 323 321 319 320
305 304 313 315 317 316 312 308 313 306 306 301 304 307 313 316 316 320 320 321 322 324 325 326 327 327 325 325 325 322 322 323 325 326 327 327 327 326 324 324 323 319 322 319
311 304 312 315 317 315 313 313 305 306 297 295 299 302 304 309 312 315 318 320 322 324 325 324 326 325 327 327 324 324 324 323 324 324 324 323 324 323 322 322 320 320 320 320
315 311 309 313 311 310 310 308 309 308 305 298 295 299 310 311 314 315 317 320 323 322 322 323 323 322 321 320 318 321 320 318 320 320 321 321 321 320 319 317 317 317 318 319
317 314 307 309 313 313 311 309 308 302 301 304 301 302 314 314 315 317 317 320 322 322 321 320 317 315 313 313 316 317 319 318 319 319 319 318 317 317 316 315 315 315 315 317
318 312 305 306 308 311 308 310 310 309 310 302 299 301 315 314 315 316 317 319 320 319 315 315 314 312 313 316 317 317 318 318 317 317 315 315 315 315 313 313 313 314 314 315
320 314 309 303 305 309 306 307 309 309 304 303 304 305 309 310 312 314 316 315 315 314 313 312 310 315 316 317 317 317 316 315 315 314 313 312 312 312 312 313 313 313 314 313
319 311 311 310 308 309 307 306 306 305 306 303 305 305 306 309 312 314 314 314 313 311 311 314 314 316 315 316 315 314 314 314 313 311 310 310 311 312 312 312 312 313 313 311
318 312 312 308 309 309 306 307 307 307 307 306 304 304 309 310 311 311 312 312 311 310 311 313 313 313 314 314 313 312 312 311 311 310 309 310 310 310 310 310 309 311 311 311
317 315 310 304 308 307 303 307 308 308 308 306 302 306 309 307 307 307 308 309 309 310 311 311 312 313 313 312 312 311 310 311 310 309 309 309 308 307 309 309 309 309 310 311
317 315 313 305 307 297 309 314 313 309 307 308 307 307 307 306 308 309 310 309 309 310 310 312 313 313 313 312 311 311 311 310 309 309 309 308 307 307 308 308 307 309 310 310
322 317 309 303 302 305 308 312 311 309 306 308 307 307 306 307 308 310 310 311 311 312 313 313 313 312 312 312 311 311 310 310 309 309 308 308 309 308 306 306 306 308 309 309
318 320 311 308 299 296 309 313 317 315 303 308 307 306 305 306 301 305 311 313 312 314 314 313 312 312 312 312 312 311 311 310 309 308 309 309 310 308 306 308 307 308 309 309
312 312 306 306 302 306 313 314 317 303 304 309 308 308 307 306 308 310 312 311 313 313 312 312 312 312 313 313 313 311 311 310 311 311 311 309 310 309 306 308 307 307 309 311
309 306 307 306 302 298 314 313 307 312 313 311 310 310 308 310 311 310 309 310 310 310 311 311 311 312 313 313 313 312 312 313 313 312 312 311 309 307 305 306 307 310 311 311
308 313 310 310 310 317 317 315 317 315 311 312 310 312 311 309 309 308 310 310 311 311 311 311 311 312 313 314 313 312 313 314 313 312 312 310 309 307 307 306 306 306 309 309
315 317 314 313 313 313 315 315 315 315 313 313 313 312 311 308 309 309 311 312 312 312 311 311 311 311 311 313 314 314 315 315 313 312 312 310 309 305 307 306 306 305 305 305
315 315 313 310 310 311 311 313 313 313 313 312 312 311 309 310 310 311 312 312 313 313 313 312 311 311 312 313 313 315 315 315 312 312 312 310 308 307 307 307 307 306 307 302
313 314 309 307 311 312 309 313 312 311 311 312 310 311 312 312 312 313 313 314 314 314 314 313 313 313 312 312 312 313 315 314 312 312 309 308 307 307 306 306 307 298 298 296
Wind_Speed
10 10 10 8 7 10 12 12 11 9 2 8 13 15 14 8 12 13 14 15 14 14 11 11 11 11 11 11 11 11 11 11 8 6 6 7 6 6 6 3 5 7 7 9
8 12 8 7 6 9 10 10 10 6 3 9 12 16 15 9 13 13 15 16 15 14 13 13 11 12 12 13 13 12 11 8 7 6 6 5 5 5 5 5 5 5 6 7
16 13 1 8 13 8 14 16 10 11 3 12 10 18 12 4 8 10 13 15 16 16 15 14 12 12 12 13 12 10 9 8 9 9 5 6 5 6 6 1 4 4 5 7
11 9 9 8 14 15 13 13 10 7 8 12 3 14 16 3 9 9 11 13 15 14 14 12 13 11 14 12 9 10 10 10 9 9 5 5 7 7 5 5 4 6 5 7
16 15 11 12 16 15 15 11 9 8 11 11 18 8 8 5 9 4 4 11 13 16 14 14 12 13 11 11 11 9 10 8 7 7 6 6 7 6 5 6 5 6 6 6
18 12 7 13 17 14 10 9 8 9 12 13 5 5 11 11 8 8 5 5 6 10 11 9 5 7 12 8 9 9 9 9 8 8 8 9 9 9 9 9 9 9 7 7
18 17 16 8 15 9 9 11 12 10 9 9 4 5 9 9 7 9 7 4 2 5 7 7 7 10 10 12 9 8 9 6 6 8 9 8 8 9 10 10 9 8 10 9
14 12 13 9 10 11 4 7 9 19 15 17 4 5 5 5 6 5 3 3 4 4 6 7 8 8 10 9 5 7 9 5 6 5 6 7 6 8 7 9 7 9 10 10
14 12 3 3 4 6 5 8 7 11 18 10 5 3 8 2 3 3 3 1 3 5 6 6 7 6 7 2 3 4 5 7 6 7 6 7 7 7 8 8 8 9 11 10
5 11 3 7 6 3 6 4 7 7 9 12 5 7 7 12 12 12 4 2 2 4 6 6 4 4 4 7 8 6 6 6 7 8 7 6 6 6 7 8 10 13 13 13
2 5 5 5 7 7 5 7 3 5 7 10 9 6 8 11 11 12 12 9 1 4 4 5 6 7 5 5 4 7 5 5 6 6 6 7 8 9 10 10 12 13 13 13
3 4 7 3 3 2 3 5 4 7 6 3 7 5 9 11 11 11 11 9 7 4 4 7 7 7 7 8 8 4 5 6 6 7 7 9 10 11 11 12 12 13 14 13
2 3 7 11 5 2 2 2 3 5 6 12 8 5 10 14 13 12 11 10 8 6 7 8 8 6 3 2 5 6 5 7 8 9 11 11 11 12 13 13 13 13 13 13
4 4 7 10 5 5 4 4 4 5 8 7 3 9 15 13 14 11 8 7 8 8 7 6 4 3 5 6 6 7 7 8 10 11 12 12 12 12 12 12 13 13 13 12
4 6 5 1 1 3 3 3 1 1 4 5 10 6 10 11 9 8 5 4 4 6 1 2 5 4 5 6 6 7 8 9 10 11 11 10 11 11 12 12 12 11 12 12
3 4 5 5 5 4 1 2 2 2 5 2 3 8 6 5 8 9 7 6 2 4 4 5 4 5 7 6 7 7 9 9 9 10 10 10 11 13 11 13 13 13 12 14
5 3 5 1 1 3 6 4 2 5 5 6 6 6 6 7 7 7 6 5 4 5 5 5 6 7 7 7 5 8 8 8 8 9 10 11 11 10 9 11 14 14 13 13
5 4 3 5 6 7 6 3 3 4 4 4 3 4 5 4 3 4 5 5 4 4 5 5 7 6 5 6 7 7 8 8 9 10 11 12 13 13 13 14 11 14 13 12
4 5 1 6 5 4 6 3 1 3 5 3 3 3 2 3 8 7 3 3 6 6 5 6 7 6 5 6 6 7 8 9 9 11 11 13 13 15 13 15 12 13 13 13
4 3 5 1 6 5 7 3 1 3 6 3 1 2 3 6 7 9 6 2 4 4 5 6 7 6 5 6 6 8 9 10 11 12 12 12 14 14 13 12 13 13 13 12
6 4 6 2 5 4 5 2 1 7 7 3 1 1 2 5 6 6 4 4 4 6 6 6 6 6 7 7 7 9 10 11 12 11 11 12 12 14 11 11 12 12 12 11
4 4 2 2 6 4 2 5 6 7 2 1 2 2 3 4 1 2 3 4 5 6 6 6 6 6 7 8 8 10 12 12 12 13 10 12 11 10 10 12 10 12 11 10
3 5 5 6 6 4 2 4 3 2 2 2 4 0 2 3 2 1 3 4 5 5 6 7 7 8 7 7 8 10 11 12 12 12 10 9 10 10 10 9 8 8 8 9
4 1 1 7 5 2 2 2 3 5 4 1 2 1 3 3 3 4 4 5 5 6 6 6 8 9 10 9 9 10 10 10 10 11 10 8 8 6 8 9 7 9 9 9
5 5 5 5 5 5 4 2 3 3 3 4 2 1 3 4 5 6 6 7 7 7 8 7 8 9 11 10 10 9 10 8 9 9 8 8 6 5 9 6 6 7 6 3
4 3 5 3 5 2 4 1 1 3 5 5 4 5 6 8 8 8 8 8 8 8 8 9 10 10 10 10 9 9 8 6 8 9 7 6 6 5 6 6 6 8 3 4
Wind_Direction
202 240 242 338 334 300 312 315 295 310 182 255 264 270 279 222 222 236 228 218 214 215 207 196 199 202 214 218 215 220 225 234 235 241 253 250 244 278 269 270 261 287 295 290
206 240 288 333 295 291 293 298 295 279 254 236 283 277 286 260 238 233 231 223 219 212 209 203 202 207 217 222 221 221 225 228 222 228 243 277 299 300 330 311 321 308 312 305
259 284 327 280 286 251 308 307 298 288 145 239 268 268 264 211 246 229 233 232 218 219 210 201 202 214 217 218 215 217 214 215 216 234 214 228 243 232 235 293 320 16 295 301
261 283 277 262 268 301 299 319 299 264 243 299 247 295 302 312 265 234 239 227 228 219 222 215 201 197 215 211 205 201 198 198 204 204 223 251 292 299 335 283 319 306 272 299
249 245 231 281 277 298 286 309 285 261 264 316 259 249 307 156 282 5 280 233 229 223 222 208 194 203 228 190 187 191 199 188 191 203 244 236 241 282 267 293 283 274 258 269
268 284 274 257 275 290 281 251 229 242 259 267 16 299 307 9 10 325 3 330 224 235 211 224 187 121 213 170 179 181 186 186 190 203 217 241 263 274 292 307 312 289 314 304
236 236 243 262 260 231 232 257 271 288 280 283 38 291 330 8 9 342 332 351 188 194 216 220 171 191 163 162 159 173 183 200 209 223 238 254 266 281 280 284 297 317 289 305
263 245 218 203 246 303 235 305 292 292 312 324 328 288 59 355 332 334 357 331 153 162 153 146 159 164 170 151 149 199 178 218 249 262 294 292 294 280 297 288 319 297 317 300
259 243 121 239 232 258 134 255 8 291 276 257 314 115 236 185 33 333 333 287 170 174 148 144 143 157 174 117 72 222 317 319 300 293 308 295 297 313 324 315 303 295 295 311
289 267 158 137 189 143 283 31 272 247 281 302 340 254 14 16 6 359 327 275 175 165 149 140 154 119 88 25 45 11 303 289 317 308 318 328 323 315 312 312 307 313 306 301
213 261 150 224 217 306 207 228 215 305 308 308 304 30 29 18 2 348 336 348 324 167 168 147 105 67 34 354 328 264 299 312 340 348 342 329 337 326 325 320 321 314 306 294
69 286 256 309 70 354 310 15 331 284 280 301 291 34 48 25 11 1 350 13 59 65 74 72 86 85 44 352 281 324 8 6 9 354 339 332 330 324 325 323 313 310 303 296
41 200 262 181 150 130 215 230 294 284 269 264 300 101 62 23 14 26 17 51 69 80 86 81 45 28 201 280 29 34 14 6 349 337 333 328 326 324 319 315 312 305 301 291
286 274 285 306 7 341 289 315 322 279 273 343 28 335 32 16 14 27 40 57 89 107 112 118 191 186 67 54 26 2 357 349 348 335 330 330 332 327 321 315 311 312 308 306
300 266 263 294 245 224 325 315 336 43 5 320 14 20 16 13 13 27 32 54 77 70 45 114 29 34 25 30 359 358 347 347 343 336 337 339 330 324 326 325 316 319 315 318
189 223 257 222 188 310 209 125 143 116 13 20 345 80 8 28 25 24 24 30 75 112 19 42 34 5 5 2 349 348 346 346 342 342 342 333 329 338 326 319 317 315 319 314
220 194 264 254 188 261 195 60 62 120 50 337 358 30 351 15 17 17 17 20 34 40 15 9 356 3 351 352 345 347 340 341 341 340 335 335 335 316 322 319 317 318 317 310
194 231 268 303 266 253 83 89 26 75 67 65 74 13 19 1 359 19 8 8 4 358 338 353 353 346 342 342 348 341 343 338 337 325 328 328 332 330 331 320 328 317 314 308
247 249 229 279 294 105 149 119 245 305 107 46 11 1 349 294 283 165 48 329 330 337 342 339 344 340 326 332 343 333 331 332 327 324 333 329 321 332 325 339 319 321 319 312
165 250 258 262 280 289 84 107 274 306 240 120 4 321 314 306 303 59 358 326 305 313 320 325 333 327 311 314 321 314 316 322 326 328 336 327 317 331 325 337 324 326 326 319
194 225 259 216 265 121 69 34 106 245 66 130 301 314 302 318 7 350 329 307 312 313 311 318 305 304 302 293 300 306 314 319 325 338 332 315 333 325 337 329 335 330 328 328
267 269 202 277 247 222 62 192 295 58 114 233 219 287 314 332 293 323 332 329 328 308 303 289 297 292 298 295 297 302 314 325 322 327 329 316 337 337 348 345 327 347 347 348
241 345 3 348 39 104 65 49 96 196 259 217 285 252 299 277 269 299 324 324 328 334 329 304 292 297 293 297 295 302 309 319 321 319 330 329 332 352 336 334 338 328 5 349
138 150 170 192 135 128 132 155 237 233 253 203 232 243 255 254 236 257 279 315 318 323 317 313 298 292 294 300 303 303 313 317 313 317 328 336 322 339 341 318 342 343 353 9
34 193 154 104 132 157 164 294 305 211 209 206 194 250 232 232 250 268 287 293 305 310 301 290 291 295 298 298 296 304 312 314 309 321 322 306 322 337 310 335 346 336 21 4
199 133 235 76 119 320 65 38 181 230 213 235 244 228 229 249 263 278 285 294 292 288 296 291 285 287 292 297 296 300 300 303 298 307 320 346 312 323 315 327 326 139 157 297